Minot AFB, ND

5:31 AM CST on December 16, 2019 (GMT -0600)
Minot Air Force Base

Weather History for KMIB - August, 2019

Change the Weather History Date:

Thursday, August 1, 2019

  Actual Average Record
Temperature  
Mean Temperature 72 °F -  
Max Temperature 87 °F 79 °F 93 °F (1997)
Min Temperature 59 °F 55 °F 42 °F (2002)
Cooling Degree Days 7    
Growing Degree Days 22 (Base 50)    
Moisture  
Dew Point 64 °F    
Average Humidity 81    
Maximum Humidity 97    
Minimum Humidity 56    
Precipitation  
Precipitation 0.36 in - - ()
Sea Level Pressure  
Sea Level Pressure 30.04 in    
Wind  
Wind Speed 6 mph (South)    
Max Wind Speed 36 mph    
Max Gust Speed 46 mph    
Visibility 10 miles    
Events Rain , Thunderstorm    
Averages and records for this station are not official NWS values.
T = Trace of Precipitation, MM = Missing Value Source: NWS Daily Summary

Daily Weather History Graph

Daily Weather History Graph

Search for Another Location

Airport or City:

Astronomy

Aug. 01, 2019 Rise Set
Actual Time 6:20 AM CDT 9:22 PM CDT
Civil Twilight 5:43 AM CDT 9:59 PM CDT
Nautical Twilight 4:55 AM CDT 10:46 PM CDT
Astronomical Twilight 3:55 AM CDT 11:45 PM CDT
Moon 6:45 AM CDT (8/1) 10:08 PM CDT (8/1)
Length of Visible Light 16h 16m
Length of Day
15h 02m
New Moon, 1% of the Moon is Illuminated
Aug 1
New Moon
Aug 7
First Quarter
Aug 15
Full
Aug 23
Last Quarter
Aug 30
New

Hourly Weather History & Observations

Time (CDT) Temp. Heat Index Dew Point Humidity Pressure Visibility Wind Dir Wind Speed Gust Speed Precip Events Conditions
12:56 AM 63.3 °F - 58.6 °F 85% 30.01 in 10.0 mi Calm Calm - N/A   Clear
1:56 AM 66.9 °F - 57.6 °F 72% 30.00 in 10.0 mi Calm Calm - N/A   Clear
2:56 AM 63.0 °F - 57.4 °F 82% 30.01 in 10.0 mi Calm Calm - N/A   Clear
3:56 AM 59.7 °F - 57.0 °F 91% 30.02 in 10.0 mi Calm Calm - N/A   Clear
4:56 AM 61.7 °F - 59.4 °F 92% 30.00 in 10.0 mi Calm Calm - N/A   Clear
5:56 AM 61.7 °F - 60.8 °F 97% 30.01 in 10.0 mi Calm Calm - N/A   Clear
6:56 AM 61.3 °F - 60.1 °F 96% 30.03 in 10.0 mi Calm Calm - N/A   Clear
7:56 AM 64.0 °F - 62.2 °F 94% 30.02 in 10.0 mi Calm Calm - N/A   Clear
8:56 AM 68.2 °F - 63.9 °F 86% 30.04 in 10.0 mi Calm Calm - N/A   Clear
9:56 AM 72.0 °F - 67.1 °F 85% 30.04 in 10.0 mi Calm Calm - N/A   Clear
10:56 AM 75.6 °F - 69.3 °F 81% 30.05 in 10.0 mi ESE 6.9 mph - N/A   Clear
11:56 AM 81.9 °F 86.0 °F 70.7 °F 69% 30.05 in 10.0 mi East 9.2 mph - N/A   Clear
12:56 PM 84.6 °F 88.8 °F 70.0 °F 61% 30.04 in 10.0 mi SE 10.4 mph 19.6 mph N/A   Clear
1:56 PM 85.5 °F 89.1 °F 68.9 °F 57% 30.04 in 10.0 mi SE 15.0 mph 21.9 mph N/A   Clear
2:56 PM 85.3 °F 88.5 °F 68.2 °F 56% 30.02 in 10.0 mi SSE 13.8 mph - N/A   Clear
3:56 PM 82.8 °F 86.4 °F 69.3 °F 64% 30.03 in 10.0 mi SE 9.2 mph - N/A   Clear
4:56 PM 81.9 °F 85.8 °F 70.2 °F 68% 30.04 in 10.0 mi SE 4.6 mph - N/A   Clear
5:56 PM 78.6 °F - 70.7 °F 77% 30.04 in 10.0 mi Calm Calm - N/A   Partly Cloudy
6:23 PM 77.0 °F - 71.6 °F 83% 30.06 in 10.0 mi SW 24.2 mph 33.4 mph N/A   Partly Cloudy
6:24 PM 77.0 °F - 71.6 °F 83% 30.06 in 10.0 mi SW 26.5 mph 36.8 mph N/A Thunderstorm Thunderstorm
6:25 PM 77.0 °F - 69.8 °F 78% 30.05 in 10.0 mi West 35.7 mph 46.0 mph N/A Thunderstorm Thunderstorm
6:30 PM 73.4 °F - 64.4 °F 73% 30.06 in 10.0 mi West 21.9 mph 46.0 mph N/A Thunderstorm Unknown
6:55 PM 68.0 °F - 64.4 °F 88% 30.07 in 7.0 mi WNW 18.4 mph 29.9 mph N/A Rain , Thunderstorm Heavy Thunderstorms and Rain
6:56 PM 67.3 °F - 63.3 °F 87% 30.07 in 6.0 mi WNW 19.6 mph - 0.18 in Rain , Thunderstorm Heavy Thunderstorms and Rain
7:01 PM 66.2 °F - 62.6 °F 88% 30.06 in 6.0 mi WNW 16.1 mph 23.0 mph N/A Rain , Thunderstorm Heavy Thunderstorms and Rain
7:11 PM 68.0 °F - 62.6 °F 83% 30.06 in 10.0 mi WNW 16.1 mph - N/A Rain Light Rain
7:26 PM 68.0 °F - 62.6 °F 83% 30.08 in 10.0 mi West 10.4 mph - N/A Rain Rain
7:29 PM 66.2 °F - 62.6 °F 88% 30.08 in 10.0 mi WSW 5.8 mph - N/A Rain , Thunderstorm Light Thunderstorms and Rain
7:56 PM 66.4 °F - 63.3 °F 90% 30.07 in 9.0 mi SSE 9.2 mph - 0.15 in Rain Light Rain
8:06 PM 66.2 °F - 62.6 °F 88% 30.06 in 10.0 mi SSE 10.4 mph - N/A Rain Light Rain
8:16 PM 66.2 °F - 62.6 °F 88% 30.05 in 10.0 mi SE 13.8 mph - N/A Rain Light Rain
8:21 PM 66.2 °F - 62.6 °F 88% 30.05 in 10.0 mi SE 16.1 mph - N/A Rain Light Rain
8:26 PM 66.2 °F - 62.6 °F 88% 30.04 in 10.0 mi SE 16.1 mph - N/A Rain Light Rain
8:56 PM 66.2 °F - 61.9 °F 86% 30.05 in 10.0 mi SSE 12.7 mph - 0.03 in Rain Light Rain Showers
9:56 PM 66.6 °F - 60.4 °F 81% 30.04 in 10.0 mi SSE 6.9 mph - N/A   Mostly Cloudy
10:56 PM 68.4 °F - 60.1 °F 75% 30.03 in 10.0 mi SSE 6.9 mph - N/A   Mostly Cloudy
11:56 PM 67.1 °F - 61.0 °F 81% 30.04 in 10.0 mi Calm Calm - N/A   Mostly Cloudy